Location: Cheching
(60.0667°N, 164.2167°W)
Time: 10:41:23
(UTC+00:00)

NOAA 19 - Pass Details

Date: 24 January 2021
Orbit: 840 x 862 km, 99.2° (Epoch: 26 February)

Event Time Altitude Azimuth Distance (km) Brightness Sun altitude
Rises 06:16:55 0° 214° (SW) 3,431 8.8 -25.0°
Reaches altitude 10° 06:20:05 10° 233° (SW) 2,496 8.2 -25.3°
Maximum altitude 06:23:49 18° 276° (W) 1,978 8.0 -25.8°
Drops below altitude 10° 06:27:34 10° 318° (NW) 2,499 8.2 -26.3°
Sets 06:30:45 0° 337° (NNW) 3,436 8.8 -26.7°
